Location: *
(17.3280°S, 114.7300°W)
Time: 06:01:52
(UTC+00:00)

Cosmos 2315 Rocket - Pass Details

Date: 05 August 2020
Orbit: 966 x 1002 km, 82.9° (Epoch: 20 September)

Event Time Altitude Azimuth Distance (km) Brightness Sun altitude
Exits shadow 12:40:21 23° 216° (SW) 1,929 5.1 -19.9°
Maximum altitude 12:43:40 41° 271° (W) 1,372 4.3 -19.1°
Drops below altitude 10° 12:49:28 10° 339° (NNW) 2,720 6.3 -17.7°
Sets 12:52:07 0° 346° (NNW) 3,668 7.0 -17.1°
